This demonstration page uses our WeatherBlox Daily Observations layout. Learn more.

Left ArrowRight Arrow

34.02893, -84.19858

Hourly Observations for July 11, 2018

Temp ( °F °C ) Dew Point ( °F °C ) Humidity (%) Winds ( mph kmh ) Pressure ( in mb ) Visibility ( mi km ) Precip ( " mm )
12:53 am 00:53 Clear 79 26.1 70 21.1 74 74 NNW 6 9 29.98 1015 10 16 0.00 0.00
1:53 am 01:53 Mostly Clear 77 25 70 21.1 79 79 Calm 29.97 1015 10 16 0.00 0.00
2:53 am 02:53 Clear 73 22.8 70 21.1 90 90 Calm 29.97 1015 10 16 0.00 0.00
3:53 am 03:53 Clear 73 22.8 70 21.1 90 90 Calm 29.96 1015 10 16 0.00 0.00
4:53 am 04:53 Clear 72 22.2 70 21.1 94 94 Calm 29.97 1015 10 16 0.00 0.00
5:53 am 05:53 Clear 71 21.7 70 21.1 96 96 Calm 29.97 1015 10 16 0.00 0.00
6:53 am 06:53 Sunny 73 22.8 70 21.1 90 90 Calm 29.98 1015 10 16 0.00 0.00
7:53 am 07:53 Sunny 76 24.4 71 21.7 85 85 Calm 30.00 1016 10 16 0.00 0.00
8:53 am 08:53 Sunny 80 26.7 71 21.7 74 74 Calm 30.01 1016 10 16 0.00 0.00
9:53 am 09:53 Sunny 84 28.9 71 21.7 65 65 Calm 30.02 1017 10 16 0.00 0.00
10:53 am 10:53 Sunny 87 30.6 70 21.1 57 57 Calm 30.01 1016 10 16 0.00 0.00
11:53 am 11:53 Sunny 87 30.6 70 21.1 57 57 S 3 6 30.01 1016 10 16 0.00 0.00
12:53 pm 12:53 Sunny 90 32.2 69 20.6 50 50 Calm 29.99 1016 10 16 0.00 0.00
1:53 pm 13:53 Mostly Sunny 91 32.8 68 20 47 47 WNW 6 9 29.98 1015 10 16 0.00 0.00
2:53 pm 14:53 Mostly Cloudy 89 31.7 69 20.6 52 52 WNW 10 17 29.97 1015 10 16 0.00 0.00
3:53 pm 15:53 Partly Cloudy 92 33.3 68 20 46 46 VRB 6 9 29.94 1014 10 16 0.00 0.00
4:53 pm 16:53 Mostly Cloudy 93 33.9 69 20.6 46 46 VRB 3 6 29.94 1014 10 16 0.00 0.00
5:53 pm 17:53 Cloudy 92 33.3 67 19.4 44 44 NW 3 6 29.92 1013 10 16 0.00 0.00
6:53 pm 18:53 Cloudy 91 32.8 68 20 47 47 NNE 3 6 29.91 1013 10 16 0.00 0.03
7:32 pm 19:32 Mostly Cloudy with Nearby Thunderstorms 90 32.2 68 20 48 48 WNW 3 6 29.91 1013 10 16 0.00 0.00
7:53 pm 19:53 Mostly Cloudy 89 31.7 68 20 50 50 NW 7 11 29.92 1013 10 16 0.00 0.00
8:01 pm 20:01 Cloudy with Nearby Thunderstorms 89 31.7 69 20.6 52 52 VRB 5 7 29.91 1013 10 16 0.00 0.00
8:18 pm 20:18 Mostly Cloudy 86 30 71 21.7 61 61 W 3 6 29.94 1014 10 16 0.00 0.00
8:53 pm 20:53 Mostly Cloudy 83 28.3 71 21.7 67 67 Calm 29.94 1014 10 16 0.00 0.00
9:53 pm 21:53 Clear 79 26.1 71 21.7 77 77 S 3 6 29.95 1014 10 16 0.00 0.00
10:53 pm 22:53 Clear 78 25.6 71 21.7 79 79 ESE 3 6 29.98 1015 10 16 0.00 0.00
11:53 pm 23:53 Clear 77 25 71 21.7 82 82 S 3 6 29.99 1016 10 16 0.00 0.00

Powered by AerisWeather